Date String (YYYY-MM-DD hh:mm:ss) UTC,Instrument flags,Ambient pressure (hPa),Sample flow (lpm),Bypass flow (lpm),Sample temperature (°C),Ambient temperature (°C),ASC tube jacket temperature (°C),LED temperature (°C),Box temperature (°C),Sample RH (%),Span deviation,Mass concentration (μg/m³),Mass concentration (μg/m³),Mass concentration (μg/m³)
DateTimeUTC,F1_M11,P_M11,Q1_M11,Q2_M11,T1_M11,T2_M11,T3_M11,T4_M11,T5_M11,U1_M11,ZSPAN_M11,X0_M11,X2_M11,X1_M11
2023-04-29 02:00:00,,0833.2,5.02,0.00,26.1,24.4,00.0,34.6,27.6,13.4,0000.0,0009.19,0003.33,0002.23
2023-04-29 02:01:00,,0833.2,5.00,0.00,26.0,24.4,00.0,34.6,27.6,13.5,0000.0,0009.17,0003.32,0002.24
2023-04-29 02:02:00,,0833.3,4.99,0.00,26.0,24.4,00.0,34.6,27.6,13.8,0000.0,0009.18,0003.35,0002.25
2023-04-29 02:03:00,,0833.2,4.99,0.00,26.0,24.4,00.0,34.6,27.6,13.7,0000.0,0008.85,0003.34,0002.25
2023-04-29 02:04:00,,0833.3,5.00,0.00,26.0,24.4,00.0,34.6,27.6,13.8,0000.0,0008.53,0003.35,0002.26
2023-04-29 02:05:00,,0833.3,5.01,0.00,26.0,24.3,00.0,34.6,27.6,13.8,0000.0,0008.57,0003.42,0002.28
2023-04-29 02:06:00,,0833.3,5.01,0.00,26.0,24.3,00.0,34.5,27.5,13.7,0000.0,0008.63,0003.40,0002.28
2023-04-29 02:07:00,,0833.3,5.00,0.00,26.0,24.3,00.0,34.5,27.5,13.4,0000.0,0008.39,0003.33,0002.28
2023-04-29 02:08:00,,0833.3,4.99,0.00,26.0,24.3,00.0,34.5,27.5,13.3,0000.0,0008.19,0003.31,0002.28
2023-04-29 02:09:00,,0833.3,5.00,0.00,25.9,24.3,00.0,34.5,27.5,13.3,0000.0,0008.10,0003.32,0002.29
2023-04-29 02:10:00,,0833.3,5.01,0.00,25.9,24.3,00.0,34.5,27.5,13.0,0000.0,0007.45,0003.32,0002.29
2023-04-29 02:11:00,,0833.3,4.99,0.00,25.9,24.3,00.0,34.5,27.5,13.1,0000.0,0007.16,0003.31,0002.29
2023-04-29 02:12:00,,0833.3,5.00,0.00,25.9,24.3,00.0,34.5,27.5,13.1,0000.0,0007.08,0003.29,0002.28
2023-04-29 02:13:00,,0833.3,5.00,0.00,25.9,24.3,00.0,34.5,27.5,12.9,0000.0,0007.04,0003.27,0002.27
2023-04-29 02:14:00,,0833.3,5.00,0.00,25.9,24.3,00.0,34.5,27.5,13.0,0000.0,0007.15,0003.27,0002.25
2023-04-29 02:15:00,,0833.3,5.01,0.00,25.9,24.3,00.0,34.4,27.5,12.9,0000.0,0007.25,0003.26,0002.23
2023-04-29 02:16:00,,0833.3,5.00,0.00,25.9,24.3,00.0,34.4,27.4,12.7,0000.0,0007.41,0003.27,0002.21
2023-04-29 02:17:00,,0833.3,5.00,0.00,25.9,24.2,00.0,34.4,27.4,12.8,0000.0,0006.85,0003.28,0002.22
2023-04-29 02:18:00,,0833.3,4.99,0.00,25.9,24.2,00.0,34.4,27.4,13.2,0000.0,0007.20,0003.30,0002.23
2023-04-29 02:19:00,,0833.3,5.00,0.00,25.9,24.2,00.0,34.4,27.4,13.1,0000.0,0009.11,0003.33,0002.23
2023-04-29 02:20:00,,0833.3,5.01,0.00,25.9,24.2,00.0,34.4,27.4,13.1,0000.0,0009.31,0003.38,0002.22
2023-04-29 02:21:00,,0833.4,4.99,0.00,25.8,24.2,00.0,34.4,27.4,13.0,0000.0,0009.32,0003.40,0002.22
2023-04-29 02:22:00,,0833.4,4.99,0.00,25.8,24.2,00.0,34.4,27.4,12.9,0000.0,0009.32,0003.42,0002.22
2023-04-29 02:23:00,,0833.4,5.00,0.00,25.8,24.2,00.0,34.4,27.4,12.6,0000.0,0009.44,0003.47,0002.21
2023-04-29 02:24:00,,0833.4,5.02,0.00,25.8,24.1,00.0,34.3,27.4,12.5,0000.0,0009.54,0003.49,0002.21
2023-04-29 02:25:00,,0833.4,4.99,0.00,25.8,24.1,00.0,34.3,27.4,12.8,0000.0,0009.54,0003.51,0002.21
2023-04-29 02:26:00,,0833.4,4.99,0.00,25.8,24.1,00.0,34.3,27.3,13.2,0000.0,0009.75,0003.49,0002.22
2023-04-29 02:27:00,,0833.4,5.01,0.00,25.8,24.1,00.0,34.3,27.3,13.4,0000.0,0009.57,0003.42,0002.21
2023-04-29 02:28:00,,0833.4,5.00,0.00,25.8,24.2,00.0,34.3,27.3,13.4,0000.0,0010.00,0003.41,0002.21
2023-04-29 02:29:00,,0833.4,4.99,0.00,25.8,24.1,00.0,34.3,27.3,13.5,0000.0,0009.95,0003.39,0002.19
2023-04-29 02:30:00,,0833.4,4.99,0.00,25.7,24.1,00.0,34.3,27.3,13.6,0000.0,0008.30,0003.39,0002.19
2023-04-29 02:31:00,,0833.5,5.00,0.00,25.7,24.1,00.0,34.3,27.3,13.6,0000.0,0008.29,0003.40,0002.20
2023-04-29 02:32:00,,0833.5,5.01,0.00,25.7,24.1,00.0,34.3,27.3,13.2,0000.0,0008.38,0003.41,0002.20
2023-04-29 02:33:00,,0833.6,5.01,0.00,25.7,24.1,00.0,34.3,27.3,12.9,0000.0,0008.49,0003.39,0002.20
2023-04-29 02:34:00,,0833.5,5.00,0.00,25.7,24.1,00.0,34.2,27.3,12.9,0000.0,0008.55,0003.37,0002.20
2023-04-29 02:35:00,,0833.6,4.99,0.00,25.7,24.1,00.0,34.2,27.2,13.0,0000.0,0008.53,0003.37,0002.20
2023-04-29 02:36:00,,0833.6,5.01,0.00,25.7,24.1,00.0,34.2,27.2,13.2,0000.0,0008.59,0003.37,0002.21
2023-04-29 02:37:00,,0833.7,5.00,0.00,25.7,24.1,00.0,34.2,27.2,13.2,0000.0,0008.47,0003.44,0002.21
2023-04-29 02:38:00,,0833.7,4.99,0.00,25.7,24.1,00.0,34.2,27.2,13.4,0000.0,0008.21,0003.46,0002.23
2023-04-29 02:39:00,,0833.6,5.01,0.00,25.7,24.1,00.0,34.2,27.2,13.9,0000.0,0007.85,0003.45,0002.22
2023-04-29 02:40:00,,0833.7,5.01,0.00,25.7,24.1,00.0,34.2,27.2,14.1,0000.0,0007.83,0003.45,0002.21
2023-04-29 02:41:00,,0833.7,5.00,0.00,25.7,24.1,00.0,34.2,27.2,14.2,0000.0,0007.68,0003.43,0002.19
2023-04-29 02:42:00,,0833.7,4.99,0.00,25.6,24.0,00.0,34.2,27.2,14.3,0000.0,0007.81,0003.41,0002.20
2023-04-29 02:43:00,,0833.7,5.00,0.00,25.6,24.0,00.0,34.2,27.2,14.2,0000.0,0007.80,0003.36,0002.19
2023-04-29 02:44:00,,0833.7,5.00,0.00,25.6,24.0,00.0,34.1,27.1,14.1,0000.0,0007.87,0003.36,0002.18
2023-04-29 02:45:00,,0833.7,5.01,0.00,25.6,24.0,00.0,34.1,27.1,14.0,0000.0,0007.76,0003.35,0002.17
2023-04-29 02:46:00,,0833.8,5.01,0.00,25.6,24.0,00.0,34.1,27.1,13.8,0000.0,0007.71,0003.33,0002.17
2023-04-29 02:47:00,,0833.7,5.00,0.00,25.6,24.0,00.0,34.1,27.1,13.3,0000.0,0007.90,0003.35,0002.18
2023-04-29 02:48:00,,0833.7,4.99,0.00,25.6,24.0,00.0,34.1,27.1,13.3,0000.0,0008.01,0003.34,0002.20
2023-04-29 02:49:00,,0833.7,4.99,0.00,25.6,23.9,00.0,34.1,27.1,13.5,0000.0,0008.02,0003.34,0002.24
2023-04-29 02:50:00,,0833.7,5.01,0.00,25.5,24.0,00.0,34.1,27.1,13.5,0000.0,0008.00,0003.37,0002.29
2023-04-29 02:51:00,,0833.7,5.01,0.00,25.5,24.0,00.0,34.1,27.1,13.2,0000.0,0008.23,0003.45,0002.36
2023-04-29 02:52:00,,0833.7,5.00,0.00,25.5,23.9,00.0,34.1,27.1,12.9,0000.0,0008.40,0003.52,0002.43
2023-04-29 02:53:00,,0833.8,5.00,0.00,25.5,23.9,00.0,34.0,27.1,12.9,0000.0,0008.19,0003.54,0002.46
2023-04-29 02:54:00,,0833.8,5.00,0.00,25.5,23.9,00.0,34.0,27.1,12.6,0000.0,0008.62,0003.57,0002.47
2023-04-29 02:55:00,,0833.8,4.99,0.00,25.5,23.9,00.0,34.0,27.1,12.5,0000.0,0008.56,0003.60,0002.48
2023-04-29 02:56:00,,0833.8,4.99,0.00,25.5,23.9,00.0,34.0,27.1,12.7,0000.0,0009.20,0003.65,0002.50
2023-04-29 02:57:00,,0833.8,5.01,0.00,25.5,23.9,00.0,34.0,27.1,13.4,0000.0,0010.08,0003.71,0002.60
2023-04-29 02:58:00,,0833.8,5.00,0.00,25.5,23.9,00.0,34.0,27.0,13.7,0000.0,0009.93,0003.76,0002.72
2023-04-29 02:59:00,,0833.8,4.99,0.00,25.5,23.9,00.0,34.0,27.0,13.7,0000.0,0009.87,0003.86,0002.88
